STARLINK-3913, 52485

Orbit data source: Space-Track

STARLINK-3913, 52485 is a payload satellite owned by SpaceX/Seattle (US) in LEO that was launched on Fri, 06 May 2022 UTC via an FALCON 9 launch vehicle from the Air Force Eastern Test Range (AFETR). Payload-class satellites include a variety of spacecraft equipped with specific instruments for various scientific and technological missions. These include communications satellites like Starlink; space stations such as the ISS; scientific satellites like the Hubble; Earth observation satellites from companies like Planet Labs, Umbra, and HawkEye 360; GPS; miniature CubeSats for education and research; and military/defense satellites.

Loading next visibility...
Identifier
52485, 2022-049AL
Orbit
LEO
Country
Flag of USUS
Related business
Manufacturer
SpaceX/Seattle
Mission
Operational Commercial Communications
Bus & Motor
STARLINK, Unknown motor
Mass
297 kg wet, ~220 kg dry
Launch date (UTC)
2022-05-06 (4 years ago)
Launch vehicle
FALCON 9
Launch site
Air Force Eastern Test Range (AFETR)
Object type
Payload
Rocket body
Debris
Shape & HBR
Box + 1 Pan, 10.1 m
Radar Cross Section
13.562 m², Large (>1 m²)

Expand to show TLE details & history
Last TLE update: 1 day ago

TLE from 1 day ago
0 STARLINK-3913
1 52485U 22049AL  26235.40247529  .00001682  00000-0  62475-4 0  9997
2 52485  53.1627  14.9604 0000913  74.7961 285.3142 15.33543208237631
Epoch: 2026-08-23T09:39Z
TLE epoch observation values (Epoch: 2026-08-23T09:39:33.865Z)
Latitude
-0.00001°
Longitude
-101.62976°
Altitude
465.987 km
Speed
7.635 km/s
True Right ascension
00h 59m 50s
True Declination
0° 00' 00"
Sunlit
Object was in full shadow at epoch
Visualization orbit readout
Latitude
Unknown
Longitude
Unknown
Altitude
Unknown
Speed
Unknown
Apparent Right ascension
Unknown
Apparent Declination
Unknown
Sunlit
N/A
Visualization observer readout
Local Sidereal Time
05:40:52
Azimuth
Unknown
Elevation
Unknown
Doppler factor
Unknown
Orbital elements
Apogee altitude
466.132 km
Perigee altitude
464.883 km
Semi-major axis
6,843.644 km
Eccentricity
0.00009
Inclination
53.1627°
RAAN
14.9604°
Arg. of periapsis
74.7961°
True anomaly
285.30411°
Mean anomaly
285.3142°
Eccentric anomaly
285.30915°
Mean motion
3.83365 °/min
Orbital period
93.91 mins
BSTAR
0.000062475
Loading maneuver chart data...
Computing Atmospheric mass density...
Loading historical data...
Loading historical data...
Loading historical data...
Loading historical data...
Loading historical data...
Loading historical data...
Loading historical data...

Documentation

Showing up to 5 results
|